TimePST,TemperatureF,Dew PointF,Humidity,Sea Level PressureIn,VisibilityMPH,Wind Direction,Wind SpeedMPH,Gust SpeedMPH,PrecipitationIn,Events,Conditions,WindDirDegrees,DateUTC
12:17 AM,37.4,33.8,87,29.99,10.0,Calm,Calm,-,0.00,,Overcast,0,2013-01-10 08:17:00
12:42 AM,37.4,35.6,93,29.99,10.0,Calm,Calm,-,0.00,,Overcast,0,2013-01-10 08:42:00
12:53 AM,37.9,34.0,86,29.99,10.0,South,4.6,-,0.00,,Overcast,190,2013-01-10 08:53:00
2:21 AM,37.4,33.8,87,30.01,10.0,SSW,3.5,-,N/A,,Overcast,200,2013-01-10 10:21:00
2:53 AM,37.0,34.0,89,30.01,10.0,SW,4.6,-,N/A,,Overcast,230,2013-01-10 10:53:00
3:53 AM,37.9,33.1,83,30.01,10.0,WSW,8.1,-,N/A,,Overcast,250,2013-01-10 11:53:00
4:53 AM,37.9,34.0,86,30.01,10.0,Calm,Calm,-,N/A,,Overcast,0,2013-01-10 12:53:00
5:42 AM,37.4,33.8,87,30.02,10.0,SSW,6.9,-,N/A,,Overcast,210,2013-01-10 13:42:00
5:53 AM,37.9,34.0,86,30.02,10.0,SSW,4.6,-,N/A,,Overcast,210,2013-01-10 13:53:00
7:53 AM,37.0,33.1,86,30.05,8.0,Calm,Calm,-,0.04,Rain,Light Rain,0,2013-01-10 15:53:00
8:53 AM,37.0,33.1,86,30.07,10.0,Calm,Calm,-,0.00,,Overcast,0,2013-01-10 16:53:00
9:53 AM,37.0,33.1,86,30.08,10.0,Calm,Calm,-,N/A,,Overcast,0,2013-01-10 17:53:00
10:53 AM,37.9,34.0,86,30.08,10.0,Calm,Calm,-,N/A,,Overcast,0,2013-01-10 18:53:00
11:53 AM,39.0,35.1,86,30.07,10.0,Calm,Calm,-,N/A,,Overcast,0,2013-01-10 19:53:00
12:53 PM,39.0,34.0,82,30.06,10.0,Calm,Calm,-,N/A,,Overcast,0,2013-01-10 20:53:00
1:27 PM,39.2,35.6,87,30.06,10.0,Variable,4.6,-,N/A,,Overcast,0,2013-01-10 21:27:00
1:34 PM,39.2,33.8,81,30.07,10.0,NW,5.8,-,N/A,,Overcast,310,2013-01-10 21:34:00
1:43 PM,39.2,33.8,81,30.07,10.0,West,3.5,-,N/A,,Overcast,280,2013-01-10 21:43:00
1:53 PM,39.0,34.0,82,30.08,10.0,West,3.5,-,N/A,,Overcast,270,2013-01-10 21:53:00
2:23 PM,39.2,33.8,81,30.08,10.0,WNW,4.6,-,N/A,,Overcast,300,2013-01-10 22:23:00
2:53 PM,39.9,33.1,77,30.09,10.0,WNW,4.6,-,N/A,,Overcast,290,2013-01-10 22:53:00
3:53 PM,39.9,33.1,77,30.10,10.0,West,3.5,-,N/A,,Overcast,270,2013-01-10 23:53:00
4:53 PM,39.0,33.1,79,30.10,10.0,WSW,3.5,-,N/A,,Overcast,240,2013-01-11 00:53:00
5:53 PM,37.9,34.0,86,30.09,8.0,SSW,6.9,-,0.00,Rain,Light Rain,210,2013-01-11 01:53:00
6:26 PM,37.4,33.8,87,30.09,10.0,SSW,4.6,-,0.00,,Overcast,200,2013-01-11 02:26:00
6:53 PM,37.9,34.0,86,30.10,10.0,Calm,Calm,-,0.00,,Overcast,0,2013-01-11 02:53:00
7:20 PM,37.4,33.8,87,30.10,10.0,Calm,Calm,-,N/A,,Mostly Cloudy,0,2013-01-11 03:20:00
7:30 PM,37.4,33.8,87,30.10,10.0,WSW,3.5,-,N/A,,Mostly Cloudy,240,2013-01-11 03:30:00
8:07 PM,37.4,33.8,87,30.09,10.0,Calm,Calm,-,N/A,,Overcast,0,2013-01-11 04:07:00
8:21 PM,37.4,33.8,87,30.09,5.0,Calm,Calm,-,0.00,Rain,Light Rain,0,2013-01-11 04:21:00
8:47 PM,37.4,33.8,87,30.10,10.0,WSW,8.1,-,0.01,Rain,Light Rain,250,2013-01-11 04:47:00
8:48 PM,37.0,33.1,86,30.10,10.0,WSW,6.9,-,0.01,Rain,Light Rain,240,2013-01-11 04:48:00
9:08 PM,35.6,33.8,93,30.09,10.0,WSW,5.8,-,0.00,Rain,Light Rain,240,2013-01-11 05:08:00
9:53 PM,36.0,32.0,86,30.10,10.0,Calm,Calm,-,0.00,,Mostly Cloudy,0,2013-01-11 05:53:00
10:08 PM,35.6,33.8,93,30.10,9.0,North,5.8,-,0.00,Rain,Light Rain,360,2013-01-11 06:08:00
10:53 PM,35.1,33.1,92,30.10,5.0,Calm,Calm,-,0.04,Rain,Light Rain,0,2013-01-11 06:53:00
11:30 PM,35.6,33.8,93,30.11,5.0,Calm,Calm,-,0.00,,Overcast,0,2013-01-11 07:30:00
11:53 PM,35.1,33.1,92,30.11,5.0,Calm,Calm,-,0.00,,Overcast,0,2013-01-11 07:53:00